Location: La Oliva
(42.2466°N, 2.9955°E)
Time: 11:11:50
(UTC+00:00)

Spot 2 Rocket - Pass Details

Date: 22 April 2021
Orbit: 756 x 773 km, 98.5° (Epoch: 10 May)

Event Time Altitude Azimuth Distance (km) Brightness Sun altitude
Exits shadow 20:32:07 35° 103° (ESE) 1,220 4.1 -19.4°
Maximum altitude 20:33:21 41° 69° (ENE) 1,100 4.0 -19.6°
Drops below altitude 10° 20:38:05 10° 1° (N) 2,308 6.5 -20.3°
Sets 20:40:30 0° 354° (N) 3,235 7.5 -20.6°
